Regional Weather Roundup
Issued by NWS Charleston, WV

Home | Current Version | Previous Version | Text Only | Print | Product List | Glossary On
Versions: 1 2 3 4 5 6 7 8 9 10 11 12 13 14 15 16 17 18 19 20 21 22 23 24 25 26 27 28 29 30 31 32 33 34 35 36 37 38 39 40 41 42 43 44 45 46 47 48 49 50
000
ASUS41 KRLX 310610
RWRRLX
West Virginia Regional Weather Roundup
National Weather Service Charleston WV
100 AM EST SAT JAN 31 2015

Note: "fair" indicates few or no clouds below 12,000 feet with no
significant weather and/or obstructions to visibility.

WVZ003-310700-
Northern Panhandle of West Virginia

CITY           SKY/WX    TMP DP  RH WIND       PRES   REMARKS
WHEELING       CLEAR     10   4  76 CALM      30.39S
$$

WVZ009-310700-
Northwest West Virginia

CITY           SKY/WX    TMP DP  RH WIND       PRES   REMARKS
PARKERSBURG    CLEAR     13   8  81 CALM      30.46F HAZE
$$

WVZ006-310700-
Western West Virginia

CITY           SKY/WX    TMP DP  RH WIND       PRES   REMARKS
HUNTINGTON     CLEAR     18  14  84 E3        30.42F
$$

WVZ015-310700-
West Central West Virginia

CITY           SKY/WX    TMP DP  RH WIND       PRES   REMARKS
CHARLESTON     CLEAR     17  12  80 S5        30.42F WCI  10
$$

WVZ022-031-310700-
North Central West Virginia

CITY           SKY/WX    TMP DP  RH WIND       PRES   REMARKS
CLARKSBURG     CLEAR     12   6  77 CALM      30.40R
MORGANTOWN     CLEAR     13   2  61 VRB3      30.40R
$$

WVZ025-035-042-045-310700-
Southern West Virginia

CITY           SKY/WX    TMP DP  RH WIND       PRES   REMARKS
BECKLEY        CLEAR     12   7  80 NW6       30.30S WCI   3
LOGAN            N/A     19  12  73 CALM      30.37S
BLUEFIELD      CLEAR     17   8  67 W7        30.27S WCI   8
LEWISBURG      CLEAR     17   8  69 SW3       30.28R
$$

WVZ047-310700-
Northern Mountains of West Virginia

CITY           SKY/WX    TMP DP  RH WIND       PRES   REMARKS
ELKINS         CLOUDY    13   7  77 NW6       30.33S WCI   4
$$

WVZ052-310700-
Eastern Panhandle of West Virginia

CITY           SKY/WX    TMP DP  RH WIND       PRES   REMARKS
MARTINSBURG    CLEAR     18   3  52 NW22G30   30.30S WCI   1
PETERSBURG     CLEAR     20   3  47 N12       30.32F WCI   7
$$


USA.gov is the U.S. government's official web portal to all federal, state and local government web resources and services.